User: anonymous
Location: Copper Breaks State Park
(34.1132°N, 99.7492°W)
Time: 10:26:39
(UTC-05:00)
Language:

SL-16 R/B - Orbit

View from above orbital plane
View from above orbital plane
View from above satellite
View from above satellite

Ground track
Ground track

The orbit data is extracted from the following two-line orbital elements,

1 27006U 01056F   14106.60182610 -.00000020  00000-0  24593-4 0  1063
2 27006 099.1602 277.3873 0015548 094.5094 306.9459 13.70915054617886
Epoch (UTC): 16 April 2014 14:26:37
Eccentricity: 0.0015548
inclination: 99.1602°
perigee height: 985 km
apogee height: 1008 km
right ascension of ascending node: 277.3873°
argument of perigee: 94.5094°
revolutions per day: 13.70915054
mean anomaly at epoch: 306.9459°
orbit number at epoch: 61788

The dashed part of the orbit path shows where the satellite is in the earth's shadow,  

DLR